Regional Weather Roundup
Issued by NWS

Home | Current Version | Previous Version | Text Only | Print | Product List | Glossary Off
Versions: 1 2 3 4 5 6 7 8 9 10 11 12 13 14 15 16 17 18 19 20 21 22 23 24 25 26 27 28

000
ASUS45 KBOI 291110
RWRID
WEATHER ROUNDUP FOR IDAHO
NATIONAL WEATHER SERVICE BOISE ID
500 AM MDT WED OCT 29 2014

NOTE: "FAIR" INDICATES FEW OR NO CLOUDS BELOW 12000 FEET
WITH NO SIGNIFICANT WEATHER AND/OR OBSTRUCTIONS TO VISIBILITY

IDZ012-014-291200-
SOUTHWEST IDAHO


CITY           SKY/WX    TMP DP  RH WIND       PRES   REMARKS
BOISE          PTCLDY    49  35  58 E6        30.13F
CALDWELL       MOCLDY    45  32  61 MISG      30.17R
MOUNTAIN HOME  CLOUDY    45  28  51 SE12      30.17R
$$

IDZ016-017-291200-
SOUTHCENTRAL IDAHO


CITY           SKY/WX    TMP DP  RH WIND       PRES   REMARKS
BURLEY         MOCLDY    40  24  53 SW6       30.17F
JEROME         CLOUDY    38  23  55 NE12      30.19S WCI  30
TWIN FALLS     CLOUDY    43  27  53 VRB7      30.19R
$$

IDZ019>023-291200-
SOUTHEAST IDAHO


CITY           SKY/WX    TMP DP  RH WIND       PRES   REMARKS
IDAHO FALLS    PTCLDY    25  19  78 N3        30.22R
POCATELLO      MOCLDY    29  22  75 N7        30.21S WCI  22
REXBURG        PTCLDY    27  21  78 NE6       30.23R WCI  20
$$

IDZ006-010-011-018-031-032-291200-
CENTRAL IDAHO MOUNTAINS


CITY           SKY/WX    TMP DP  RH WIND       PRES   REMARKS
MCCALL         PTCLDY    37  35  92 NE5       30.14F WCI  33
HAILEY         MOCLDY    36  27  69 NW9       30.23F WCI  29
STANLEY          N/A     39  34  82 SE3       30.21S
SALMON         CLOUDY    37  30  75 NE5       30.14R WCI  34
CHALLIS        MOCLDY    34  26  72 NW5       30.16F WCI  30
$$

IDZ002-004-006-007-026-291200-
NORTHERN IDAHO


CITY           SKY/WX    TMP DP  RH WIND       PRES   REMARKS
LEWISTON       CLOUDY    49  46  90 CALM      30.08R
LOWELL           N/A     47  45  93 CALM      30.15R
COEUR D`ALENE  CLOUDY    43  41  93 NE5       30.02F
MULLAN PASS    LGT RAIN  36  35  96 SW12G22   30.04S FOG     WCI  28
$$



USA.gov is the U.S. government's official web portal to all federal, state and local government web resources and services.